Glasgow, United Kingdom

4:59 PM BST on June 27, 2017 (GMT +0100)
Glasgow

Weather History for EGPF - May, 2012

Change the Weather History Date:

Tuesday, May 15, 2012

  Actual Average Record
Temperature  
Mean Temperature 46 °F -  
Max Temperature 53 °F 59 °F 66 °F (1997)
Min Temperature 39 °F 44 °F 32 °F (2015)
Degree Days  
Heating Degree Days 19    
Moisture  
Dew Point 35 °F    
Average Humidity 68    
Maximum Humidity 93    
Minimum Humidity 44    
Precipitation  
Precipitation 0.00 in - - ()
Sea Level Pressure  
Sea Level Pressure 30.04 in    
Wind  
Wind Speed 7 mph ()    
Max Wind Speed 20 mph    
Max Gust Speed 25 mph    
Visibility 6.2 miles    
Events Rain    
Averages and records for this station are not official NWS values.
T = Trace of Precipitation, MM = Missing Value Source: Averaged Metar Reports

Daily Weather History Graph

Daily Weather History Graph

Search for Another Location

Airport or City:

Trip Planner

Search our weather history database for the weather conditions in past years. The results will help you decide how hot, cold, wet, or windy it might be!

Date:

Astronomy

May. 15, 2012 Rise Set
Actual Time 5:04 AM BST 9:24 PM BST
Civil Twilight 4:15 AM BST 10:14 PM BST
Nautical Twilight 2:58 AM BST 11:32 PM BST
Astronomical Twilight 1:46 AM BST 12:41 AM BST
Moon 2:56 AM BST (5/15) 3:39 PM BST (5/15)
Length of Visible Light 17h 59m
Length of Day
16h 19m
Waning Crescent, 26% of the Moon is Illuminated
May 15
Waning Crescent
May 21
New
May 28
First Quarter
Jun 4
Full
Jun 11
Last Quarter

Hourly Weather History & Observations

Time (BST) Temp. Windchill Dew Point Humidity Pressure Visibility Wind Dir Wind Speed Gust Speed Precip Events Conditions
12:20 AM 41.0 °F 37.1 °F 37.4 °F 87% 29.83 in - West 5.8 mph - N/A   Clear
12:50 AM 39.2 °F 34.2 °F 35.6 °F 87% 29.83 in - WSW 6.9 mph - N/A   Clear
1:20 AM 39.2 °F 34.2 °F 35.6 °F 87% 29.83 in - WSW 6.9 mph - N/A   Clear
1:50 AM 39.2 °F 35.0 °F 37.4 °F 93% 29.83 in - WSW 5.8 mph - N/A   Clear
2:20 AM 41.0 °F 36.4 °F 37.4 °F 87% 29.86 in - WSW 6.9 mph - N/A   Clear
2:50 AM 41.0 °F 38.0 °F 37.4 °F 87% 29.86 in 6.2 mi West 4.6 mph - N/A   Mostly Cloudy
3:20 AM 39.2 °F 35.9 °F 37.4 °F 93% 29.86 in 6.2 mi WSW 4.6 mph - N/A   Partly Cloudy
3:50 AM 39.2 °F 37.0 °F 37.4 °F 93% 29.89 in 6.2 mi Variable 3.5 mph - N/A   Mostly Cloudy
4:20 AM 39.2 °F 35.0 °F 37.4 °F 93% 29.89 in 6.2 mi NW 5.8 mph - N/A   Mostly Cloudy
4:50 AM 42.8 °F 38.6 °F 37.4 °F 81% 29.89 in 6.2 mi North 6.9 mph - N/A   Scattered Clouds
5:20 AM 42.8 °F 40.1 °F 35.6 °F 76% 29.92 in 6.2 mi NNE 4.6 mph - N/A   Scattered Clouds
5:50 AM 41.0 °F - 35.6 °F 81% 29.95 in - Calm Calm - N/A   Clear
6:20 AM 41.0 °F - 37.4 °F 87% 29.95 in - Variable 2.3 mph - N/A   Clear
6:50 AM 42.8 °F 40.1 °F 35.6 °F 76% 29.95 in 6.2 mi NNE 4.6 mph - N/A   Scattered Clouds
7:20 AM 44.6 °F 41.4 °F 33.8 °F 66% 29.98 in - North 5.8 mph - N/A   Clear
7:50 AM 44.6 °F 41.4 °F 35.6 °F 71% 29.98 in 6.2 mi NNE 5.8 mph - N/A   Partly Cloudy
8:20 AM 44.6 °F 41.4 °F 35.6 °F 71% 30.01 in 6.2 mi NW 5.8 mph - N/A   Scattered Clouds
8:50 AM 48.2 °F - 33.8 °F 58% 30.01 in 6.2 mi North 6.9 mph - N/A   Scattered Clouds
9:20 AM 48.2 °F - 32.0 °F 54% 30.04 in 6.2 mi North 8.1 mph - N/A   Scattered Clouds
9:50 AM 48.2 °F - 32.0 °F 54% 30.04 in 6.2 mi North 8.1 mph - N/A   Scattered Clouds
10:20 AM 50.0 °F - 32.0 °F 50% 30.04 in 6.2 mi NNW 9.2 mph - N/A   Scattered Clouds
10:50 AM 48.2 °F - 33.8 °F 58% 30.06 in 6.2 mi WNW 11.5 mph - N/A   Scattered Clouds
11:20 AM 48.2 °F - 33.8 °F 58% 30.06 in 6.2 mi WNW 8.1 mph - N/A   Scattered Clouds
11:50 AM 50.0 °F - 33.8 °F 54% 30.06 in 6.2 mi NNW 5.8 mph - N/A   Scattered Clouds
12:20 PM 50.0 °F - 32.0 °F 50% 30.06 in 6.2 mi NNW 6.9 mph - N/A   Scattered Clouds
12:50 PM 50.0 °F - 32.0 °F 50% 30.06 in 6.2 mi WNW 11.5 mph - N/A   Scattered Clouds
1:20 PM 53.6 °F - 33.8 °F 47% 30.09 in 6.2 mi NW 12.7 mph - N/A   Scattered Clouds
1:50 PM 51.8 °F - 32.0 °F 47% 30.09 in 6.2 mi WNW 16.1 mph - N/A   Scattered Clouds
2:20 PM 53.6 °F - 32.0 °F 44% 30.09 in 6.2 mi West 15.0 mph - N/A   Scattered Clouds
2:50 PM 53.6 °F - 32.0 °F 44% 30.09 in 6.2 mi WNW 17.3 mph - N/A   Scattered Clouds
3:20 PM 53.6 °F - 32.0 °F 44% 30.09 in 6.2 mi WNW 16.1 mph - N/A   Scattered Clouds
3:50 PM 51.8 °F - 32.0 °F 47% 30.09 in 6.2 mi NW 17.3 mph - N/A   Scattered Clouds
4:20 PM 50.0 °F - 35.6 °F 58% 30.12 in 6.2 mi NW 19.6 mph - N/A   Scattered Clouds
4:50 PM 50.0 °F - 33.8 °F 54% 30.12 in 6.2 mi WNW 16.1 mph - N/A   Scattered Clouds
5:20 PM 51.8 °F - 33.8 °F 50% 30.12 in 6.2 mi WNW 16.1 mph - N/A   Scattered Clouds
5:50 PM 50.0 °F - 33.8 °F 54% 30.12 in 6.2 mi WNW 18.4 mph - N/A   Scattered Clouds
6:20 PM 48.2 °F - 33.8 °F 58% 30.15 in 6.2 mi WNW 16.1 mph - N/A   Scattered Clouds
6:50 PM 48.2 °F - 33.8 °F 58% 30.15 in 6.2 mi NW 13.8 mph 25.3 mph N/A Rain Light Rain
7:20 PM 48.2 °F - 35.6 °F 62% 30.15 in 6.2 mi NW 8.1 mph - N/A   Scattered Clouds
7:50 PM 44.6 °F 40.7 °F 37.4 °F 76% 30.18 in 6.2 mi WNW 6.9 mph - N/A   Mostly Cloudy
8:20 PM 44.6 °F 40.7 °F 37.4 °F 76% 30.18 in - West 6.9 mph - N/A   Clear
8:50 PM 44.6 °F 39.2 °F 35.6 °F 71% 30.18 in 6.2 mi WNW 10.4 mph - N/A   Partly Cloudy
9:20 PM 42.8 °F 37.0 °F 35.6 °F 76% 30.18 in - WNW 10.4 mph - N/A   Clear
9:50 PM 41.0 °F 35.8 °F 33.8 °F 76% 30.18 in - WNW 8.1 mph - N/A   Clear
10:20 PM 41.0 °F 36.4 °F 33.8 °F 76% 30.18 in - WNW 6.9 mph - N/A   Clear
10:50 PM 39.2 °F 35.0 °F 33.8 °F 81% 30.21 in - West 5.8 mph - N/A   Clear
11:20 PM 39.2 °F 34.2 °F 33.8 °F 81% 30.21 in - WSW 6.9 mph - N/A   Clear
11:50 PM 39.2 °F 37.0 °F 33.8 °F 81% 30.21 in - Variable 3.5 mph - N/A   Clear